| time (UTC) | temp F | wind direction | speed knots | gust knots | rain 1hr in | rain 24hr in | rain mn in | humidity % | barometer mb |
| 20260507151503 | 61 | 324 | 5.2 | 14.8 | 0.00 | 0.28 | 0.15 | 36 | 1009.7 |
| 20260507151003 | 60 | 340 | 4.3 | 13.0 | 0.00 | 0.28 | 0.15 | 40 | 1009.9 |
| 20260507150525 | 60 | 352 | 5.2 | 13.0 | 0.00 | 0.28 | 0.15 | 39 | 1010.0 |
| 20260507150003 | 60 | 346 | 6.1 | 13.0 | 0.00 | 0.28 | 0.15 | 42 | 1009.9 |
| 20260507145503 | 59 | 334 | 7.0 | 13.0 | 0.00 | 0.28 | 0.15 | 40 | 1010.1 |
| 20260507145004 | 59 | 305 | 6.1 | 13.0 | 0.00 | 0.28 | 0.15 | 40 | 1010.1 |
| 20260507144504 | 59 | 297 | 6.1 | 15.6 | 0.00 | 0.28 | 0.15 | 38 | 1010.1 |
| 20260507144004 | 59 | 299 | 5.2 | 15.6 | 0.00 | 0.28 | 0.15 | 44 | 1009.9 |
| 20260507143503 | 59 | 301 | 4.3 | 12.2 | 0.00 | 0.28 | 0.15 | 43 | 1010.1 |
| 20260507143003 | 59 | 315 | 5.2 | 11.3 | 0.00 | 0.28 | 0.15 | 43 | 1010.0 |
| 20260507142504 | 59 | 319 | 5.2 | 13.0 | 0.00 | 0.28 | 0.15 | 43 | 1010.0 |
| 20260507142025 | 58 | 304 | 5.2 | 18.2 | 0.00 | 0.28 | 0.15 | 46 | 1009.9 |
| 20260507141503 | 58 | 301 | 5.2 | 18.2 | 0.00 | 0.28 | 0.15 | 43 | 1009.9 |
| 20260507141003 | 58 | 310 | 4.3 | 11.3 | 0.00 | 0.28 | 0.15 | 49 | 1009.8 |
| 20260507140503 | 57 | 286 | 5.2 | 11.3 | 0.00 | 0.28 | 0.15 | 46 | 1010.0 |
| 20260507140024 | 57 | 274 | 4.3 | 9.6 | 0.00 | 0.28 | 0.15 | 49 | 1010.0 |
| 20260507135524 | 57 | 276 | 4.3 | 11.3 | 0.00 | 0.28 | 0.15 | 47 | 1010.0 |
| 20260507135003 | 57 | 279 | 4.3 | 11.3 | 0.00 | 0.28 | 0.15 | 53 | 1009.9 |
| 20260507134504 | 57 | 278 | 4.3 | 11.3 | 0.00 | 0.28 | 0.15 | 50 | 1010.0 |
| 20260507134004 | 57 | 312 | 4.3 | 11.3 | 0.00 | 0.28 | 0.15 | 51 | 1009.8 |
| 20260507133503 | 57 | 322 | 3.5 | 11.3 | 0.00 | 0.28 | 0.15 | 57 | 1010.0 |
| 20260507133004 | 56 | 292 | 3.5 | 8.7 | 0.00 | 0.28 | 0.15 | 56 | 1010.0 |
| 20260507132524 | 56 | 299 | 3.5 | 8.7 | 0.00 | 0.28 | 0.15 | 56 | 1010.2 |
| 20260507132004 | 56 | 319 | 3.5 | 8.7 | 0.00 | 0.28 | 0.15 | 61 | 1010.2 |
| 20260507131503 | 55 | 326 | 2.6 | 6.1 | 0.00 | 0.28 | 0.15 | 67 | 1010.0 |
| 20260507131003 | 55 | 329 | 3.5 | 9.6 | 0.00 | 0.28 | 0.15 | 66 | 1010.1 |
| 20260507130503 | 55 | 323 | 5.2 | 12.2 | 0.00 | 0.28 | 0.15 | 66 | 1010.0 |
| 20260507130004 | 54 | 320 | 5.2 | 12.2 | 0.00 | 0.28 | 0.15 | 65 | 1010.1 |
| 20260507125524 | 54 | 324 | 4.3 | 11.3 | 0.00 | 0.28 | 0.15 | 73 | 1009.9 |
| 20260507125003 | 53 | 332 | 3.5 | 11.3 | 0.00 | 0.28 | 0.15 | 76 | 1010.1 |
| 20260507124503 | 52 | 329 | 2.6 | 7.8 | 0.00 | 0.28 | 0.15 | 80 | 1010.1 |
| 20260507124004 | 51 | 321 | 2.6 | 7.8 | 0.00 | 0.28 | 0.15 | 79 | 1010.1 |
| 20260507123503 | 51 | 319 | 3.5 | 9.6 | 0.00 | 0.28 | 0.15 | 81 | 1010.0 |
| 20260507123004 | 50 | 313 | 3.5 | 9.6 | 0.00 | 0.28 | 0.15 | 82 | 1010.0 |
| 20260507122503 | 50 | 306 | 1.7 | 7.0 | 0.00 | 0.28 | 0.15 | 82 | 1009.9 |
| 20260507122004 | 50 | 309 | 1.7 | 6.1 | 0.00 | 0.28 | 0.15 | 83 | 1010.2 |
| 20260507121503 | 50 | 317 | 2.6 | 7.8 | 0.00 | 0.28 | 0.15 | 83 | 1010.1 |
| 20260507121004 | 50 | 308 | 3.5 | 8.7 | 0.00 | 0.28 | 0.15 | 84 | 1010.1 |
| 20260507120503 | 50 | 293 | 2.6 | 8.7 | 0.00 | 0.28 | 0.15 | 84 | 1009.9 |
| 20260507120005 | 50 | 281 | 2.6 | 7.8 | 0.00 | 0.28 | 0.15 | 84 | 1010.1 |
| 20260507115504 | 49 | 296 | 2.6 | 7.8 | 0.00 | 0.28 | 0.15 | 85 | 1010.1 |
| 20260507115003 | 49 | 316 | 1.7 | 5.2 | 0.00 | 0.28 | 0.15 | 86 | 1010.2 |
| 20260507114503 | 49 | 305 | 1.7 | 7.0 | 0.00 | 0.28 | 0.15 | 86 | 1009.8 |
| 20260507114003 | 49 | 297 | 1.7 | 7.0 | 0.00 | 0.28 | 0.15 | 86 | 1009.9 |
| 20260507113504 | 49 | 286 | 1.7 | 6.1 | 0.00 | 0.28 | 0.15 | 86 | 1009.9 |
| 20260507113004 | 49 | 281 | 1.7 | 6.1 | 0.00 | 0.28 | 0.15 | 86 | 1009.6 |
| 20260507112503 | 49 | 292 | 0.9 | 3.5 | 0.00 | 0.28 | 0.15 | 86 | 1009.6 |
| 20260507112003 | 49 | 293 | 0.9 | 6.1 | 0.00 | 0.28 | 0.15 | 86 | 1009.7 |
| 20260507111504 | 49 | 288 | 1.7 | 6.1 | 0.00 | 0.28 | 0.15 | 86 | 1009.4 |
| 20260507111004 | 49 | 295 | 1.7 | 3.5 | 0.00 | 0.28 | 0.15 | 87 | 1009.3 |
| 20260507110503 | 49 | 292 | 1.7 | 5.2 | 0.00 | 0.28 | 0.15 | 87 | 1009.4 |
| 20260507110003 | 49 | 281 | 0.9 | 5.2 | 0.00 | 0.28 | 0.15 | 87 | 1009.4 |
| 20260507105503 | 49 | 281 | 0.9 | 5.2 | 0.00 | 0.28 | 0.15 | 87 | 1009.3 |
| 20260507105004 | 49 | 300 | 0.9 | 3.5 | 0.00 | 0.28 | 0.15 | 87 | 1009.2 |
| 20260507104503 | 49 | 301 | 0.9 | 6.1 | 0.00 | 0.28 | 0.15 | 87 | 1009.2 |
| 20260507104004 | 49 | 300 | 1.7 | 6.1 | 0.00 | 0.28 | 0.15 | 87 | 1009.1 |
| 20260507103503 | 49 | 297 | 1.7 | 5.2 | 0.00 | 0.28 | 0.15 | 87 | 1009.0 |
| 20260507103004 | 49 | 292 | 1.7 | 5.2 | 0.00 | 0.28 | 0.15 | 87 | 1008.9 |
| 20260507102504 | 49 | 292 | 1.7 | 5.2 | 0.00 | 0.28 | 0.15 | 87 | 1009.2 |
| 20260507102003 | 49 | 289 | 1.7 | 3.5 | 0.00 | 0.28 | 0.15 | 87 | 1008.6 |
| 20260507101503 | 49 | 285 | 1.7 | 3.5 | 0.00 | 0.28 | 0.15 | 87 | 1009.0 |
| 20260507101025 | 49 | 280 | 1.7 | 5.2 | 0.00 | 0.28 | 0.15 | 87 | 1008.8 |
| 20260507100524 | 49 | 283 | 1.7 | 5.2 | 0.00 | 0.28 | 0.15 | 87 | 1008.7 |
| 20260507100025 | 49 | 302 | 0.9 | 3.5 | 0.00 | 0.28 | 0.15 | 87 | 1008.5 |
| 20260507095503 | 49 | 303 | 1.7 | 6.1 | 0.00 | 0.28 | 0.15 | 87 | 1008.4 |
| 20260507095003 | 49 | 301 | 1.7 | 6.1 | 0.00 | 0.28 | 0.15 | 87 | 1008.4 |
| 20260507094503 | 49 | 298 | 2.6 | 7.8 | 0.00 | 0.28 | 0.15 | 87 | 1008.5 |
| 20260507094004 | 49 | 299 | 2.6 | 7.8 | 0.00 | 0.28 | 0.15 | 88 | 1008.4 |
| 20260507093503 | 49 | 299 | 2.6 | 7.0 | 0.00 | 0.28 | 0.15 | 88 | 1008.5 |
| 20260507093024 | 49 | 301 | 2.6 | 8.7 | 0.00 | 0.28 | 0.15 | 88 | 1008.8 |
| 20260507092503 | 49 | 301 | 2.6 | 8.7 | 0.00 | 0.28 | 0.15 | 88 | 1008.5 |
| 20260507092025 | 49 | 295 | 2.6 | 7.0 | 0.00 | 0.28 | 0.15 | 88 | 1008.6 |
| 20260507091503 | 49 | 290 | 2.6 | 7.8 | 0.00 | 0.28 | 0.15 | 88 | 1008.5 |
| 20260507091004 | 49 | 296 | 2.6 | 7.8 | 0.01 | 0.28 | 0.15 | 88 | 1008.6 |
| 20260507090503 | 49 | 304 | 2.6 | 7.0 | 0.02 | 0.28 | 0.15 | 89 | 1008.6 |
| 20260507090024 | 49 | 304 | 2.6 | 7.0 | 0.02 | 0.28 | 0.15 | 89 | 1008.4 |
| 20260507085504 | 49 | 301 | 1.7 | 6.1 | 0.02 | 0.28 | 0.15 | 89 | 1008.7 |
| 20260507085004 | 49 | 303 | 1.7 | 6.1 | 0.03 | 0.28 | 0.15 | 89 | 1008.7 |
| 20260507084503 | 49 | 293 | 0.9 | 6.1 | 0.04 | 0.28 | 0.15 | 89 | 1008.4 |
| 20260507084003 | 49 | 287 | 0.9 | 5.2 | 0.04 | 0.28 | 0.15 | 89 | 1008.4 |
| 20260507083503 | 49 | 298 | 0.9 | 2.6 | 0.05 | 0.28 | 0.15 | 88 | 1008.5 |
| 20260507083004 | 49 | 312 | 0.9 | 3.5 | 0.06 | 0.28 | 0.15 | 88 | 1008.6 |
| 20260507082503 | 50 | 303 | 1.7 | 5.2 | 0.06 | 0.28 | 0.15 | 88 | 1008.6 |
| 20260507082004 | 50 | 295 | 1.7 | 5.2 | 0.06 | 0.28 | 0.15 | 88 | 1008.3 |
| 20260507081503 | 50 | 307 | 1.7 | 7.0 | 0.07 | 0.28 | 0.15 | 88 | 1008.3 |
| 20260507081003 | 50 | 291 | 1.7 | 7.0 | 0.06 | 0.27 | 0.14 | 88 | 1008.3 |
| 20260507080524 | 50 | 272 | 1.7 | 7.0 | 0.06 | 0.27 | 0.14 | 88 | 1008.5 |
| 20260507080004 | 50 | 270 | 1.7 | 3.5 | 0.06 | 0.26 | 0.13 | 88 | 1009.0 |
| 20260507075524 | 50 | 279 | 1.7 | 7.0 | 0.06 | 0.26 | 0.13 | 88 | 1008.7 |
| 20260507075024 | 50 | 271 | 2.6 | 7.0 | 0.06 | 0.25 | 0.13 | 88 | 1008.4 |
| 20260507074503 | 50 | 260 | 1.7 | 5.2 | 0.06 | 0.25 | 0.12 | 88 | 1008.7 |
| 20260507074003 | 51 | 266 | 1.7 | 5.2 | 0.06 | 0.24 | 0.11 | 88 | 1008.7 |
| 20260507073524 | 51 | 286 | 1.7 | 5.2 | 0.06 | 0.23 | 0.10 | 88 | 1009.0 |
| 20260507073003 | 51 | 284 | 1.7 | 6.1 | 0.06 | 0.22 | 0.09 | 88 | 1008.5 |
| 20260507072503 | 51 | 282 | 1.7 | 7.0 | 0.07 | 0.22 | 0.09 | 88 | 1008.8 |
| 20260507072025 | 51 | 280 | 1.7 | 7.0 | 0.07 | 0.22 | 0.09 | 88 | 1008.7 |
| 20260507071524 | 51 | 260 | 2.6 | 7.0 | 0.07 | 0.21 | 0.08 | 87 | 1008.7 |
| 20260507071003 | 51 | 270 | 2.6 | 7.0 | 0.07 | 0.21 | 0.08 | 87 | 1008.8 |
| 20260507070503 | 51 | 292 | 1.7 | 7.0 | 0.07 | 0.21 | 0.08 | 87 | 1008.6 |
| 20260507070005 | 51 | 291 | 1.7 | 5.2 | 0.07 | 0.20 | 0.07 | 86 | 1008.4 |
| 20260507065503 | 51 | 293 | 1.7 | 6.1 | 0.07 | 0.20 | 0.07 | 86 | 1008.7 |
| 20260507065003 | 51 | 294 | 2.6 | 7.8 | 0.06 | 0.20 | 0.07 | 85 | 1008.6 |
| 20260507064503 | 52 | 282 | 1.7 | 7.8 | 0.06 | 0.19 | 0.06 | 85 | 1008.5 |
| 20260507064004 | 52 | 270 | 1.7 | 6.1 | 0.04 | 0.18 | 0.05 | 85 | 1008.7 |
| 20260507063525 | 52 | 281 | 1.7 | 6.1 | 0.04 | 0.17 | 0.04 | 84 | 1008.6 |
| 20260507063004 | 52 | 305 | 2.6 | 7.0 | 0.03 | 0.16 | 0.03 | 83 | 1008.4 |
| 20260507062504 | 53 | 304 | 2.6 | 7.8 | 0.02 | 0.15 | 0.02 | 82 | 1008.2 |
| 20260507062003 | 53 | 280 | 3.5 | 8.7 | 0.02 | 0.15 | 0.02 | 82 | 1008.1 |
| 20260507061504 | 53 | 278 | 3.5 | 8.7 | 0.01 | 0.14 | 0.01 | 82 | 1008.6 |
| 20260507061003 | 53 | 305 | 1.7 | 5.2 | 0.01 | 0.14 | 0.01 | 81 | 1008.2 |
| 20260507060503 | 53 | 294 | 1.7 | 5.2 | 0.00 | 0.13 | 0.00 | 80 | 1007.5 |
| 20260507060003 | 53 | 291 | 1.7 | 3.5 | 0.00 | 0.13 | 0.00 | 80 | 1008.4 |
| 20260507055504 | 53 | 301 | 1.7 | 7.0 | 0.00 | 0.13 | 0.00 | 79 | 1008.0 |
| 20260507055004 | 54 | 301 | 2.6 | 7.8 | 0.00 | 0.13 | 0.00 | 79 | 1007.8 |
| 20260507054504 | 54 | 297 | 2.6 | 7.8 | 0.00 | 0.13 | 0.00 | 79 | 1008.2 |
| 20260507054004 | 54 | 327 | 2.6 | 7.8 | 0.00 | 0.13 | 0.00 | 78 | 1008.0 |
| 20260507053524 | 54 | 329 | 3.5 | 9.6 | 0.00 | 0.13 | 0.00 | 78 | 1007.9 |
| 20260507053024 | 54 | 308 | 2.6 | 9.6 | 0.00 | 0.13 | 0.00 | 77 | 1007.4 |
| 20260507052504 | 54 | 302 | 2.6 | 6.1 | 0.00 | 0.13 | 0.00 | 77 | 1007.6 |
| 20260507052004 | 55 | 313 | 2.6 | 7.0 | 0.00 | 0.13 | 0.00 | 77 | 1007.7 |
| 20260507051504 | 55 | 302 | 1.7 | 7.0 | 0.00 | 0.13 | 0.00 | 76 | 1007.6 |
| 20260507051004 | 55 | 281 | 2.6 | 5.2 | 0.00 | 0.13 | 0.00 | 76 | 1007.6 |
| 20260507050504 | 55 | 298 | 2.6 | 8.7 | 0.00 | 0.13 | 0.00 | 76 | 1007.8 |
| 20260507050005 | 55 | 301 | 2.6 | 8.7 | 0.00 | 0.13 | 0.00 | 76 | 1008.1 |
| 20260507045503 | 55 | 295 | 2.6 | 7.8 | 0.00 | 0.13 | 0.00 | 76 | 1007.9 |
| 20260507045003 | 55 | 295 | 2.6 | 7.8 | 0.00 | 0.13 | 0.00 | 76 | 1008.1 |
| 20260507044504 | 55 | 288 | 2.6 | 7.0 | 0.00 | 0.13 | 0.00 | 76 | 1007.8 |
| 20260507044003 | 55 | 288 | 2.6 | 7.0 | 0.00 | 0.13 | 0.00 | 76 | 1007.6 |
| 20260507043504 | 55 | 283 | 2.6 | 7.0 | 0.00 | 0.13 | 0.00 | 76 | 1007.8 |
| 20260507043003 | 56 | 277 | 2.6 | 7.0 | 0.00 | 0.13 | 0.00 | 76 | 1007.9 |
| 20260507042524 | 56 | 276 | 2.6 | 7.0 | 0.00 | 0.13 | 0.00 | 76 | 1007.9 |
| 20260507042003 | 56 | 272 | 2.6 | 7.0 | 0.00 | 0.13 | 0.00 | 76 | 1008.0 |
| 20260507041503 | 56 | 272 | 1.7 | 6.1 | 0.00 | 0.13 | 0.00 | 76 | 1008.0 |
| 20260507041003 | 56 | 272 | 2.6 | 6.1 | 0.00 | 0.13 | 0.00 | 76 | 1008.1 |
| 20260507040504 | 56 | 277 | 2.6 | 6.1 | 0.00 | 0.13 | 0.00 | 77 | 1007.8 |
| 20260507040003 | 56 | 276 | 1.7 | 5.2 | 0.00 | 0.13 | 0.00 | 77 | 1008.2 |
| 20260507035504 | 56 | 278 | 0.9 | 3.5 | 0.00 | 0.13 | 0.13 | 78 | 1008.0 |
| 20260507035024 | 56 | 296 | 0.9 | 3.5 | 0.00 | 0.13 | 0.13 | 78 | 1008.0 |
| 20260507034503 | 56 | 307 | 1.7 | 3.5 | 0.00 | 0.13 | 0.13 | 78 | 1007.9 |
| 20260507034003 | 56 | 326 | 1.7 | 5.2 | 0.00 | 0.13 | 0.13 | 78 | 1007.8 |
| 20260507033503 | 57 | 331 | 2.6 | 6.1 | 0.00 | 0.13 | 0.13 | 79 | 1007.8 |
| 20260507033003 | 57 | 317 | 2.6 | 8.7 | 0.00 | 0.13 | 0.13 | 78 | 1007.8 |
| 20260507032503 | 57 | 301 | 2.6 | 8.7 | 0.00 | 0.13 | 0.13 | 78 | 1007.9 |
| 20260507032025 | 57 | 301 | 1.7 | 5.2 | 0.00 | 0.13 | 0.13 | 78 | 1007.7 |
| 20260507031503 | 57 | 304 | 1.7 | 6.1 | 0.00 | 0.13 | 0.13 | 79 | 1007.8 |
| 20260507031004 | 57 | 299 | 0.9 | 6.1 | 0.00 | 0.13 | 0.13 | 79 | 1007.7 |
| 20260507030525 | 57 | 279 | 1.7 | 8.7 | 0.00 | 0.13 | 0.13 | 79 | 1007.5 |
| 20260507030024 | 57 | 280 | 1.7 | 8.7 | 0.00 | 0.13 | 0.13 | 78 | 1007.7 |
| 20260507025504 | 57 | 291 | 1.7 | 6.1 | 0.00 | 0.13 | 0.13 | 79 | 1007.6 |
| 20260507025003 | 58 | 301 | 3.5 | 11.3 | 0.00 | 0.13 | 0.13 | 78 | 1007.7 |
| 20260507024503 | 58 | 312 | 3.5 | 11.3 | 0.00 | 0.13 | 0.13 | 78 | 1007.6 |
| 20260507024004 | 58 | 303 | 3.5 | 9.6 | 0.00 | 0.13 | 0.13 | 79 | 1007.7 |
| 20260507023504 | 58 | 291 | 2.6 | 7.8 | 0.00 | 0.13 | 0.13 | 80 | 1007.9 |
| 20260507023003 | 58 | 291 | 3.5 | 7.8 | 0.01 | 0.13 | 0.13 | 82 | 1007.9 |
| 20260507022525 | 59 | 303 | 2.6 | 7.8 | 0.03 | 0.13 | 0.13 | 82 | 1008.0 |
| 20260507022004 | 59 | 305 | 1.7 | 7.0 | 0.03 | 0.13 | 0.13 | 84 | 1008.0 |
| 20260507021503 | 59 | 300 | 1.7 | 7.8 | 0.03 | 0.13 | 0.13 | 84 | 1007.9 |
| 20260507021025 | 60 | 314 | 2.6 | 7.8 | 0.03 | 0.13 | 0.13 | 84 | 1007.8 |
| 20260507020504 | 60 | 311 | 3.5 | 9.6 | 0.03 | 0.13 | 0.13 | 84 | 1007.7 |
| 20260507020003 | 60 | 305 | 3.5 | 9.6 | 0.03 | 0.13 | 0.13 | 84 | 1007.7 |
| 20260507015504 | 61 | 307 | 3.5 | 8.7 | 0.03 | 0.13 | 0.13 | 83 | 1007.7 |
| 20260507015003 | 61 | 309 | 3.5 | 8.7 | 0.02 | 0.13 | 0.13 | 83 | 1007.7 |
| 20260507014504 | 62 | 309 | 3.5 | 8.7 | 0.02 | 0.13 | 0.13 | 83 | 1007.6 |
| 20260507014025 | 62 | 307 | 3.5 | 16.5 | 0.02 | 0.13 | 0.13 | 83 | 1007.3 |
| 20260507013504 | 63 | 308 | 4.3 | 16.5 | 0.02 | 0.13 | 0.13 | 84 | 1007.2 |
| 20260507013004 | 64 | 297 | 3.5 | 12.2 | 0.02 | 0.12 | 0.12 | 84 | 1007.1 |
| 20260507012524 | 64 | 268 | 3.5 | 13.0 | 0.00 | 0.10 | 0.11 | 84 | 1007.1 |
| 20260507012025 | 64 | 229 | 3.5 | 13.0 | 0.00 | 0.10 | 0.10 | 85 | 1006.9 |
| 20260507011504 | 64 | 207 | 2.6 | 8.7 | 0.00 | 0.10 | 0.10 | 85 | 1006.5 |
| 20260507011024 | 64 | 203 | 2.6 | 7.0 | 0.00 | 0.10 | 0.10 | 85 | 1006.3 |
| 20260507010503 | 64 | 202 | 2.6 | 7.8 | 0.00 | 0.10 | 0.10 | 86 | 1006.3 |
| 20260507010003 | 64 | 203 | 2.6 | 7.8 | 0.00 | 0.10 | 0.10 | 85 | 1006.4 |
| 20260507005524 | 63 | 206 | 1.7 | 5.2 | 0.00 | 0.10 | 0.10 | 85 | 1006.3 |
| 20260507005003 | 63 | 200 | 1.7 | 8.7 | 0.00 | 0.10 | 0.10 | 85 | 1006.4 |
| 20260507004503 | 63 | 214 | 0.9 | 8.7 | 0.00 | 0.10 | 0.10 | 85 | 1006.2 |
| 20260507004003 | 63 | 221 | 1.7 | 3.5 | 0.00 | 0.10 | 0.10 | 85 | 1006.2 |
| 20260507003504 | 63 | 216 | 1.7 | 5.2 | 0.00 | 0.10 | 0.10 | 85 | 1006.2 |
| 20260507003004 | 63 | 218 | 1.7 | 5.2 | 0.00 | 0.10 | 0.10 | 85 | 1006.3 |
| 20260507002503 | 63 | 215 | 1.7 | 3.5 | 0.00 | 0.10 | 0.10 | 85 | 1006.0 |
| 20260507002025 | 63 | 214 | 1.7 | 5.2 | 0.00 | 0.10 | 0.10 | 85 | 1006.1 |
| 20260507001503 | 63 | 208 | 1.7 | 5.2 | 0.00 | 0.10 | 0.10 | 84 | 1006.2 |
| 20260507001004 | 63 | 209 | 1.7 | 5.2 | 0.00 | 0.10 | 0.10 | 84 | 1006.1 |
| 20260507000505 | 64 | 210 | 1.7 | 7.0 | 0.00 | 0.10 | 0.10 | 84 | 1006.1 |
| 20260507000003 | 64 | 207 | 2.6 | 7.0 | 0.00 | 0.10 | 0.10 | 84 | 1006.3 |
| 20260506235504 | 64 | 209 | 2.6 | 7.0 | 0.00 | 0.10 | 0.10 | 84 | 1006.3 |
| 20260506235025 | 64 | 212 | 2.6 | 6.1 | 0.00 | 0.10 | 0.10 | 84 | 1006.4 |
| 20260506234504 | 64 | 217 | 2.6 | 6.1 | 0.00 | 0.10 | 0.10 | 84 | 1006.1 |
| 20260506234004 | 64 | 214 | 2.6 | 6.1 | 0.00 | 0.10 | 0.10 | 84 | 1006.0 |
| 20260506233503 | 64 | 204 | 2.6 | 11.3 | 0.00 | 0.10 | 0.10 | 84 | 1005.9 |
| 20260506233004 | 64 | 211 | 2.6 | 12.2 | 0.00 | 0.10 | 0.10 | 84 | 1005.7 |
| 20260506232525 | 64 | 222 | 3.5 | 12.2 | 0.00 | 0.10 | 0.10 | 84 | 1005.9 |
| 20260506232004 | 64 | 218 | 3.5 | 7.0 | 0.00 | 0.10 | 0.10 | 84 | 1006.1 |
| 20260506231525 | 64 | 211 | 4.3 | 12.2 | 0.00 | 0.10 | 0.10 | 84 | 1006.3 |
| 20260506231004 | 64 | 210 | 4.3 | 12.2 | 0.00 | 0.10 | 0.10 | 84 | 1006.1 |
| 20260506230503 | 64 | 212 | 4.3 | 9.6 | 0.00 | 0.10 | 0.10 | 84 | 1006.2 |
| 20260506230004 | 64 | 214 | 4.3 | 12.2 | 0.00 | 0.10 | 0.10 | 84 | 1006.1 |
| 20260506225503 | 64 | 219 | 4.3 | 12.2 | 0.00 | 0.10 | 0.10 | 84 | 1006.1 |
| 20260506225024 | 64 | 228 | 3.5 | 7.8 | 0.00 | 0.10 | 0.10 | 84 | 1006.2 |
| 20260506224504 | 64 | 225 | 3.5 | 9.6 | 0.00 | 0.10 | 0.10 | 84 | 1005.9 |
| 20260506224003 | 65 | 220 | 3.5 | 9.6 | 0.00 | 0.10 | 0.10 | 84 | 1005.8 |
| 20260506223525 | 65 | 223 | 4.3 | 9.6 | 0.00 | 0.10 | 0.10 | 84 | 1005.7 |
| 20260506223003 | 65 | 215 | 4.3 | 9.6 | 0.00 | 0.10 | 0.10 | 84 | 1005.6 |
| 20260506222504 | 65 | 213 | 4.3 | 12.2 | 0.00 | 0.10 | 0.10 | 84 | 1005.8 |
| 20260506222003 | 64 | 218 | 4.3 | 12.2 | 0.00 | 0.10 | 0.10 | 84 | 1005.9 |
| 20260506221504 | 65 | 211 | 4.3 | 12.2 | 0.00 | 0.10 | 0.10 | 85 | 1005.7 |
| 20260506221003 | 64 | 213 | 4.3 | 9.6 | 0.00 | 0.10 | 0.10 | 85 | 1005.7 |
| 20260506220503 | 64 | 226 | 5.2 | 11.3 | 0.00 | 0.10 | 0.10 | 85 | 1005.7 |
| 20260506220004 | 64 | 222 | 5.2 | 18.2 | 0.00 | 0.10 | 0.10 | 85 | 1005.9 |
| 20260506215504 | 64 | 215 | 5.2 | 18.2 | 0.00 | 0.10 | 0.10 | 86 | 1005.5 |
| 20260506215004 | 64 | 218 | 5.2 | 18.2 | 0.00 | 0.10 | 0.10 | 86 | 1005.7 |
| 20260506214504 | 64 | 218 | 6.1 | 12.2 | 0.00 | 0.10 | 0.10 | 86 | 1005.7 |
| 20260506214004 | 64 | 219 | 6.1 | 12.2 | 0.00 | 0.10 | 0.10 | 86 | 1005.5 |
| 20260506213525 | 64 | 217 | 5.2 | 12.2 | 0.00 | 0.10 | 0.10 | 87 | 1005.4 |
| 20260506213003 | 64 | 215 | 4.3 | 11.3 | 0.00 | 0.10 | 0.10 | 87 | 1005.5 |
| 20260506212503 | 64 | 207 | 5.2 | 13.9 | 0.00 | 0.10 | 0.10 | 87 | 1005.3 |
| 20260506212025 | 64 | 208 | 5.2 | 13.9 | 0.00 | 0.10 | 0.10 | 87 | 1005.5 |
| 20260506211504 | 63 | 214 | 4.3 | 13.0 | 0.00 | 0.10 | 0.10 | 88 | 1005.4 |
| 20260506211024 | 63 | 214 | 4.3 | 9.6 | 0.00 | 0.10 | 0.10 | 88 | 1005.3 |
| 20260506210524 | 63 | 211 | 4.3 | 8.7 | 0.00 | 0.10 | 0.10 | 88 | 1005.1 |
| 20260506210004 | 63 | 205 | 3.5 | 8.7 | 0.00 | 0.10 | 0.10 | 88 | 1005.2 |
| 20260506205504 | 63 | 219 | 3.5 | 14.8 | 0.00 | 0.10 | 0.10 | 88 | 1005.3 |
| 20260506205003 | 63 | 223 | 4.3 | 14.8 | 0.00 | 0.10 | 0.10 | 88 | 1005.3 |
| 20260506204504 | 63 | 206 | 4.3 | 11.3 | 0.01 | 0.10 | 0.10 | 88 | 1005.2 |
| 20260506204024 | 63 | 200 | 3.5 | 9.6 | 0.01 | 0.10 | 0.10 | 88 | 1005.2 |
| 20260506203504 | 63 | 210 | 3.5 | 9.6 | 0.01 | 0.10 | 0.10 | 88 | 1005.3 |
| 20260506203003 | 63 | 205 | 4.3 | 14.8 | 0.01 | 0.10 | 0.10 | 87 | 1005.3 |
| 20260506202503 | 63 | 202 | 4.3 | 14.8 | 0.02 | 0.10 | 0.10 | 87 | 1005.1 |
| 20260506202004 | 63 | 206 | 3.5 | 9.6 | 0.04 | 0.10 | 0.10 | 87 | 1005.4 |
| 20260506201504 | 63 | 209 | 2.6 | 7.0 | 0.04 | 0.10 | 0.10 | 87 | 1005.2 |
| 20260506201004 | 63 | 211 | 2.6 | 8.7 | 0.05 | 0.10 | 0.10 | 87 | 1005.3 |
| 20260506200503 | 63 | 209 | 2.6 | 8.7 | 0.06 | 0.10 | 0.10 | 87 | 1005.5 |
| 20260506200025 | 63 | 197 | 1.7 | 7.8 | 0.06 | 0.10 | 0.10 | 86 | 1005.6 |
| 20260506195503 | 63 | 194 | 0.9 | 5.2 | 0.06 | 0.10 | 0.10 | 86 | 1005.8 |
| 20260506195003 | 63 | 210 | 0.9 | 3.5 | 0.06 | 0.10 | 0.10 | 85 | 1005.8 |
| 20260506194503 | 63 | 210 | 1.7 | 5.2 | 0.05 | 0.09 | 0.09 | 85 | 1005.8 |
| 20260506194004 | 63 | 214 | 2.6 | 5.2 | 0.06 | 0.09 | 0.09 | 85 | 1005.8 |
| 20260506193504 | 63 | 217 | 2.6 | 5.2 | 0.06 | 0.09 | 0.09 | 85 | 1005.9 |
| 20260506193004 | 64 | 223 | 2.6 | 6.1 | 0.05 | 0.09 | 0.09 | 85 | 1006.1 |
| 20260506192504 | 64 | 230 | 2.6 | 9.6 | 0.04 | 0.08 | 0.08 | 84 | 1006.0 |
| 20260506192025 | 64 | 229 | 3.5 | 9.6 | 0.03 | 0.07 | 0.07 | 83 | 1006.0 |
| 20260506191504 | 64 | 224 | 2.6 | 7.0 | 0.02 | 0.06 | 0.06 | 83 | 1006.0 |
| 20260506191004 | 64 | 222 | 2.6 | 7.0 | 0.02 | 0.06 | 0.06 | 81 | 1006.1 |
| 20260506190504 | 65 | 221 | 2.6 | 7.8 | 0.01 | 0.05 | 0.05 | 81 | 1006.1 |
| 20260506190003 | 65 | 213 | 2.6 | 8.7 | 0.00 | 0.04 | 0.04 | 81 | 1006.1 |
| 20260506185503 | 65 | 213 | 2.6 | 8.7 | 0.00 | 0.04 | 0.04 | 80 | 1006.1 |
| 20260506185003 | 65 | 217 | 2.6 | 9.6 | 0.00 | 0.04 | 0.04 | 79 | 1006.3 |
| 20260506184504 | 65 | 213 | 3.5 | 9.6 | 0.00 | 0.04 | 0.04 | 79 | 1005.8 |
| 20260506184004 | 66 | 204 | 3.5 | 11.3 | 0.00 | 0.04 | 0.04 | 79 | 1005.9 |
| 20260506183524 | 66 | 209 | 4.3 | 12.2 | 0.00 | 0.04 | 0.04 | 78 | 1006.1 |
| 20260506183003 | 66 | 218 | 5.2 | 13.9 | 0.00 | 0.04 | 0.04 | 78 | 1006.0 |
| 20260506182504 | 66 | 213 | 5.2 | 13.9 | 0.01 | 0.04 | 0.04 | 78 | 1006.1 |
| 20260506182003 | 66 | 209 | 3.5 | 11.3 | 0.02 | 0.04 | 0.04 | 79 | 1006.2 |
| 20260506181504 | 66 | 210 | 2.6 | 7.0 | 0.02 | 0.04 | 0.04 | 80 | 1006.3 |
| 20260506181003 | 66 | 201 | 3.5 | 9.6 | 0.02 | 0.04 | 0.04 | 79 | 1006.5 |
| 20260506180503 | 66 | 191 | 4.3 | 9.6 | 0.02 | 0.04 | 0.04 | 79 | 1006.4 |
| 20260506180003 | 66 | 190 | 3.5 | 9.6 | 0.02 | 0.04 | 0.04 | 80 | 1006.5 |
| 20260506175503 | 66 | 204 | 4.3 | 12.2 | 0.02 | 0.04 | 0.04 | 81 | 1006.8 |
| 20260506175003 | 66 | 207 | 4.3 | 12.2 | 0.02 | 0.04 | 0.04 | 81 | 1006.5 |
| 20260506174504 | 66 | 201 | 3.5 | 12.2 | 0.02 | 0.04 | 0.04 | 81 | 1006.5 |
| 20260506174004 | 65 | 208 | 3.5 | 12.2 | 0.02 | 0.04 | 0.04 | 81 | 1006.5 |
| 20260506173503 | 65 | 203 | 2.6 | 8.7 | 0.03 | 0.04 | 0.04 | 81 | 1006.6 |
| 20260506173003 | 65 | 187 | 2.6 | 7.8 | 0.03 | 0.04 | 0.04 | 80 | 1006.8 |
| 20260506172503 | 65 | 192 | 2.6 | 11.3 | 0.02 | 0.03 | 0.03 | 79 | 1006.3 |
| 20260506172004 | 65 | 184 | 3.5 | 11.3 | 0.02 | 0.02 | 0.02 | 78 | 1006.3 |
| 20260506171503 | 65 | 182 | 3.5 | 9.6 | 0.02 | 0.02 | 0.02 | 78 | 1006.4 |
| 20260506171003 | 66 | 192 | 3.5 | 9.6 | 0.02 | 0.02 | 0.02 | 78 | 1006.4 |
| 20260506170503 | 66 | 195 | 3.5 | 13.9 | 0.02 | 0.02 | 0.02 | 78 | 1006.6 |
| 20260506170024 | 66 | 198 | 4.3 | 13.9 | 0.02 | 0.02 | 0.02 | 77 | 1006.9 |
| 20260506165504 | 66 | 210 | 4.3 | 13.0 | 0.02 | 0.02 | 0.02 | 77 | 1007.0 |
| 20260506165003 | 66 | 212 | 3.5 | 13.0 | 0.02 | 0.02 | 0.02 | 76 | 1007.4 |
| 20260506164525 | 66 | 212 | 3.5 | 9.6 | 0.02 | 0.02 | 0.02 | 75 | 1007.3 |
| 20260506164003 | 66 | 216 | 4.3 | 13.9 | 0.02 | 0.02 | 0.02 | 74 | 1007.0 |
| 20260506163504 | 67 | 211 | 5.2 | 13.9 | 0.01 | 0.01 | 0.01 | 73 | 1007.3 |
| 20260506163003 | 67 | 201 | 4.3 | 13.9 | 0.01 | 0.01 | 0.01 | 72 | 1007.3 |
| 20260506162524 | 68 | 201 | 3.5 | 12.2 | 0.00 | 0.00 | 0.00 | 71 | 1007.3 |
| 20260506162003 | 68 | 206 | 5.2 | 14.8 | 0.00 | 0.00 | 0.00 | 70 | 1007.5 |
| 20260506161525 | 68 | 206 | 6.1 | 15.6 | 0.00 | 0.00 | 0.00 | 69 | 1007.8 |
| 20260506161003 | 69 | 201 | 6.1 | 22.6 | 0.00 | 0.00 | 0.00 | 67 | 1007.7 |
| 20260506160503 | 69 | 196 | 7.0 | 22.6 | 0.00 | 0.00 | 0.00 | 67 | 1007.8 |
| 20260506160025 | 69 | 202 | 7.0 | 18.2 | 0.00 | 0.00 | 0.00 | 67 | 1008.0 |
| 20260506155503 | 70 | 218 | 4.3 | 15.6 | 0.00 | 0.00 | 0.00 | 66 | 1007.9 |
| 20260506155003 | 70 | 215 | 3.5 | 9.6 | 0.00 | 0.00 | 0.00 | 67 | 1007.6 |
| 20260506154503 | 70 | 203 | 5.2 | 11.3 | 0.00 | 0.00 | 0.00 | 67 | 1007.6 |
| 20260506154004 | 70 | 202 | 6.1 | 18.2 | 0.00 | 0.00 | 0.00 | 67 | 1007.5 |
| 20260506153524 | 70 | 204 | 6.1 | 18.2 | 0.00 | 0.00 | 0.00 | 66 | 1007.7 |
| 20260506153003 | 70 | 211 | 5.2 | 13.9 | 0.00 | 0.00 | 0.00 | 65 | 1007.6 |
| 20260506152524 | 70 | 215 | 7.0 | 18.2 | 0.00 | 0.00 | 0.00 | 64 | 1007.7 |
| 20260506152003 | 70 | 218 | 7.0 | 18.2 | 0.00 | 0.00 | 0.00 | 63 | 1007.7 |